Location: Carbonear
(47.7333°N, 53.2500°W)
Time: 10:42:47
(UTC+00:00)

XW-2D - Visible Passes

Search period start: 30 November 2022 00:00
Search period end: 10 December 2022 00:00
Orbit: 490 x 509 km, 97.5° (Epoch: 30 November)

Date Brightness Start Highest point End Pass type
(mag) Time Alt. Az. Time Alt. Az. Time Alt. Az.
30 Nov ? 09:08:24 10° NE 09:11:30 26° E 09:14:35 10° SSE visible
30 Nov ? 21:22:59 10° SSW 21:26:20 33° W 21:29:42 10° NNW visible
01 Dec ? 08:49:21 10° NE 08:51:41 16° E 08:54:00 10° SE visible
01 Dec ? 10:22:10 10° N 10:25:37 40° WNW 10:29:01 10° SW visible
01 Dec ? 21:02:58 10° S 21:06:35 57° W 21:10:13 10° NNW visible
02 Dec ? 10:02:21 10° N 10:05:59 70° WNW 10:09:34 10° SSW visible
02 Dec ? 20:43:12 10° SSE 20:46:52 82° E 20:50:33 10° N visible
03 Dec ? 09:42:38 10° NNE 09:46:16 67° ESE 09:49:53 10° S visible
03 Dec ? 20:23:41 10° SE 20:27:12 47° ENE 20:30:44 10° N visible
03 Dec ? 21:59:10 10° SW 22:01:12 14° W 22:03:15 10° WNW visible
04 Dec ? 09:23:04 10° NNE 09:26:30 38° E 09:29:54 10° SSE visible
04 Dec ? 21:38:22 10° SSW 21:41:19 23° W 21:44:17 10° NW visible
05 Dec ? 09:03:42 10° NE 09:06:40 23° E 09:09:37 10° SSE visible
05 Dec ? 21:18:03 10° SSW 21:21:29 38° W 21:24:55 10° NNW visible
06 Dec ? 08:44:43 10° ENE 08:46:45 14° E 08:48:47 10° SE visible
06 Dec ? 10:17:15 10° N 10:20:45 46° WNW 10:24:14 10° SW visible
06 Dec ? 20:58:02 10° S 21:01:41 66° W 21:05:19 10° NNW visible
07 Dec ? 09:57:24 10° N 10:01:02 81° WNW 10:04:40 10° SSW visible
07 Dec ? 20:38:17 10° SSE 20:41:55 71° ENE 20:45:34 10° N visible
08 Dec ? 09:37:39 10° NNE 09:41:16 58° E 09:44:51 10° S visible
08 Dec ? 20:18:46 10° SE 20:22:12 40° ENE 20:25:39 10° N visible
08 Dec ? 21:53:48 10° SW 21:56:08 16° W 21:58:28 10° NW visible
09 Dec ? 09:18:05 10° NNE 09:21:25 33° E 09:24:44 10° SSE visible
09 Dec ? 21:33:06 10° SSW 21:36:12 26° W 21:39:19 10° NW visible
